This is the latest recevied weather packets stored in our database for station/object W4SNA-3. If no packets are shown the sender has not sent any weather packets the latest 10 day(s).
| Time | Temp. | Humidity | Pressure | Rain* | Wind** | Luminosity | Snow |
|---|---|---|---|---|---|---|---|
| 1777928482 | 20.56° C | 50% | 1012.5 hPa | 0 mm | - | - | - |
| 1777928182 | 20.56° C | 46% | 1012.6 hPa | 0 mm | - | - | - |
| 1777927881 | 20.56° C | 51% | 1012.6 hPa | 0 mm | - | - | - |
| 1777927582 | 20.56° C | 52% | 1012.7 hPa | 0 mm | - | - | - |
| 1777927283 | 20.56° C | 49% | 1012.7 hPa | 0 mm | - | - | - |
| 1777926982 | 20.56° C | 51% | 1012.7 hPa | 0 mm | - | - | - |
| 1777926682 | 20.56° C | 50% | 1012.7 hPa | 0 mm | - | - | - |
| 1777926382 | 20° C | 53% | 1012.8 hPa | 0 mm | - | - | - |
| 1777926082 | 20° C | 55% | 1012.9 hPa | 0 mm | - | - | - |
| 1777925782 | 20° C | 54% | 1012.8 hPa | 0 mm | - | - | - |
| 1777925481 | 20° C | 53% | 1013 hPa | 0 mm | - | - | - |
| 1777925181 | 20° C | 52% | 1013 hPa | 0 mm | - | - | - |
| 1777924882 | 20° C | 54% | 1013 hPa | 0 mm | - | - | - |
| 1777924581 | 20.56° C | 56% | 1013.1 hPa | 0 mm | - | - | - |
| 1777924281 | 20.56° C | 53% | 1013.2 hPa | 0 mm | - | - | - |
| 1777923981 | 20.56° C | 54% | 1013.2 hPa | 0 mm | - | - | - |
| 1777923697 | 20.56° C | 53% | 1013.2 hPa | 0 mm | - | - | - |
| 1777923381 | 21.11° C | 52% | 1013.2 hPa | 0 mm | - | - | - |
| 1777922781 | 21.11° C | 51% | 1013.4 hPa | 0 mm | - | - | - |
| 1777922481 | 21.11° C | 52% | 1013.6 hPa | 0 mm | - | - | - |
| 1777922181 | 21.11° C | 53% | 1013.6 hPa | 0 mm | - | - | - |
| 1777921881 | 20.56° C | 53% | 1013.6 hPa | 0 mm | - | - | - |
| 1777921581 | 20.56° C | 51% | 1013.9 hPa | 0 mm | - | - | - |
| 1777921282 | 20° C | 54% | 1013.9 hPa | 0 mm | - | - | - |
| 1777920981 | 20° C | 53% | 1013.8 hPa | 0 mm | - | - | - |
* Rain latest hour (hover to see other rain measurements)
** Current wind speed in m/s (hover to see current wind gust speed)